Zurück zum Katalog

COSMOS 1275 DEB

AktivPO
NORAD 27734·DEBRIS·🇷🇺 Russia

Gestartet Jun 4, 1981 von Plesetsk Cosmodrome

Loading…

Nächste Überflüge (nächste 24 Stunden)

TLE

AktuellSource: Space-Track

Epoche: Sep 13, 2026, 14:33 UTC

1 27734U 81053MP  26256.60658534  .00001499  00000-0  88739-3 0  9999
2 27734  83.1174   2.0617 0101411  61.2822 299.8497 14.04536995568805

Verfolge COSMOS 1275 DEB in Echtzeit mit AllMySat

Download on the App Store